OBJECT B, 58850

Orbit data source: Space-Track

You're viewing an Uncataloged Satellite

Recently launched and/or uncataloged satellites may have evolving metadata. Metadata may include but not limited to: Owner, Maufacturer, Bus, Motor, and Mission.

OBJECT B, 58850 is an Iranian satellite in LEO that was launched on Sun, 28 Jan 2024 UTC via an SIMORGH launch vehicle from the Semnan, Iran (SEM). Unknown objects in Earth's orbit typically refer to objects detected orbiting the Earth but have not yet been identified or cataloged. These objects could be anything from previously untracked satellites, spent rocket stages, debris from satellite collisions, or even natural meteoroids temporarily captured by Earth's gravity.

Loading next visibility...
Identifier
58850, 2024-018B
Orbit
LEO
Country
Flag of IRIR / IRAN
Related business
None
Manufacturer
Unknown
Mission
Operational Defense Technology
Bus & Motor
Unknown
Mass
Unknown
Launch date (UTC)
2024-01-28 (2 years ago)
Launch vehicle
SIMORGH
Launch site
Semnan, Iran (SEM)
Object type
Unknown
Shape & HBR
Box, 0.1 m
Radar Cross Section
0.035 m², Medium (>0.1 m² and < 1m²)

Expand to show TLE details & history
Last TLE update: 8 hours ago

TLE from 8 hours ago
0 OBJECT B
1 58850U 24018B   26171.56217230  .00001751  00000-0  19599-3 0  9994
2 58850  58.6907 206.0050 0419592 112.5274 252.0725 14.43869751125883
Epoch: 2026-06-20T13:29Z
TLE epoch observation values (Epoch: 2026-06-20T13:29:31.686Z)
Latitude
-0.00008°
Longitude
94.84791°
Altitude
850.308 km
Speed
7.374 km/s
True Right ascension
13h 44m 01s
True Declination
0° 00' 00"
Sunlit
Object was in daylight at epoch
Visualization orbit readout
Latitude
Unknown
Longitude
Unknown
Altitude
Unknown
Speed
Unknown
Apparent Right ascension
Unknown
Apparent Declination
Unknown
Sunlit
N/A
Visualization observer readout
Local Sidereal Time
08:33:44
Azimuth
Unknown
Elevation
Unknown
Doppler factor
Unknown
Orbital elements
Apogee altitude
1,044.045 km
Perigee altitude
446.27 km
Semi-major axis
7,123.294 km
Eccentricity
0.04196
Inclination
58.6907°
RAAN
206.005°
Arg. of periapsis
112.5274°
True anomaly
247.57512°
Mean anomaly
252.0725°
Eccentric anomaly
249.81605°
Mean motion
3.61012 °/min
Orbital period
99.72 mins
BSTAR
0.00019599
Loading maneuver chart data...
Computing Atmospheric mass density...
Loading historical data...
Loading historical data...
Loading historical data...
Loading historical data...
Loading historical data...
Loading historical data...
Loading historical data...
Other satellites on launch #18 in the year 2024 (2024-01-28 UTC)

Documentation

Showing up to 5 results
|